Weather Roundup
Issued by NWS

Home | Current Version | Previous Version | Text Only | Print | Product List | Glossary On
Versions: 1 2 3 4 5 6 7 8 9 10 11 12 13 14 15 16 17 18 19 20 21 22 23 24 25 26 27 28 29 30 31 32 33 34 35 36 37 38 39 40 41 42 43 44 45 46 47 48 49 50
000
NZUS93 KARX 041110
HRRWXR

CURRENT HOURLY OBSERVATIONS ACROSS
MUCH OF THE UPPER MISSISSIPPI VALLEY
NATIONAL WEATHER SERVICE LA CROSSE WI
500 AM CST WED MAR 04 2015


...SOUTHEAST MINNESOTA...


CITY           SKY/WX    TMP DP  RH WIND       PRES   REMARKS
ROCHESTER      FAIR       1  -6  72 NW14      30.07R WCI -17
ROCHESTER/MAYO FAIR       2  -7  65 W14       30.08R WCI -16
WINONA         PTCLDY     9  -2  61 NW10      30.12R WCI  -6
AUSTIN         PTCLDY     1  -6  71 NW15      30.10R WCI -18
ALBERT LEA     PTCLDY     1  -6  71 NW7       30.11R WCI -11
DODGE CENTER   PTCLDY     1  -4  78 W12       30.07R WCI -15
PRESTON        PTCLDY     2  -6  68 NW15      30.08R WCI -17
OWATONNA       CLEAR      1  -8  66 W10       30.11R WCI -14
FARIBAULT      CLEAR      0  -8  71 W8        30.12R WCI -15
$$

...ELSEWHERE IN MINNESOTA...


CITY           SKY/WX    TMP DP  RH WIND       PRES   REMARKS
MINNEAPOLIS    CLEAR      0  -8  69 W9        30.12R WCI -15
INTNL FALLS    CLEAR    -13 -17  82 W6        29.94R WCI -27
DULUTH         CLEAR     -6 -13  71 W10       29.92R WCI -24
RED WING       CLEAR      1  -8  66 NW6       30.10R WCI -10
REDWOOD FALLS  CLEAR     -2  -9  72 W8        30.14R WCI -17
MANKATO        FAIR       1  -8  66 NW13      30.13R WCI -16
FAIRMONT       CLEAR      3  -6  66 NW13      30.13R WCI -14
$$

...SOUTHWEST WISCONSIN...


CITY           SKY/WX    TMP DP  RH WIND       PRES   REMARKS
LA CROSSE      PTCLDY     8  -1  66 NW13      30.10R WCI  -8
PRAIRIE DU CHI PTCLDY     8  -2  62 NW13      30.11R WCI  -7
BOSCOBEL       CLEAR     10  -1  61 W6        30.10R WCI   0
LONE ROCK      CLEAR     11   0  61 W14       30.07R WCI  -5
PLATTEVILLE    PTCLDY    10   4  74 W13G18    30.05R WCI  -5
FORT MC COY    CLEAR      8  -2  64 NW8G18    30.06R WCI  -5
CAMP DOUGLAS   CLEAR      7  -2  66 W9        30.03R WCI  -7
VIROQUA        FAIR       5  -1  74 NW10      30.02R WCI -10
WIS DELLS      CLEAR      9  -2  61 NW12      30.01R WCI  -6
$$

...ELSEWHERE IN WISCONSIN...


CITY           SKY/WX    TMP DP  RH WIND       PRES   REMARKS
MILWAUKEE      CLEAR     19   7  59 NW15G21   29.96R WCI   5
MADISON        MOCLDY    13   4  67 W8        30.00R WCI   2
GREEN BAY      PTCLDY    13   3  64 W9        29.94R WCI   1
EAU CLAIRE     CLEAR      1  -8  66 W12       30.05R WCI -16
BLACK RVR FLS  FAIR       6  -5  61 NW10      30.05R WCI  -9
MEDFORD        CLEAR      0  -8  69 W9        29.93R WCI -16
WAUSAU         CLEAR      3  -6  66 NW12      29.92R WCI -13
WIS RAPIDS     CLEAR      5  -6  60 NW12      30.00R WCI -11
MARSHFIELD     CLEAR      3  -5  69 NW14      29.96R WCI -15
RICE LAKE      CLEAR     -3  -9  75 W7        30.04R WCI -16
$$

...NORTHEAST IOWA...


CITY           SKY/WX    TMP DP  RH WIND       PRES   REMARKS
DECORAH        MOCLDY     5  -4  66 NW10G18   30.07R WCI -10
MASON CITY     PTCLDY     5  -4  66 NW18      30.14R WCI -15
CHARLES CITY   CLOUDY     7  -2  66 NW14      30.12R WCI -10
OELWEIN        CLOUDY     7  -2  66 NW20      30.10R WCI -13
$$

...ELSEWHERE IN IOWA...


CITY           SKY/WX    TMP DP  RH WIND       PRES   REMARKS
DES MOINES     PTCLDY    14   0  53 N12       30.19R WCI   0
IOWA CITY      MOCLDY    10   2  69 NW12      30.16R WCI  -5
FORT DODGE     PTCLDY     9  -4  56 NW7       30.18R WCI  -3
$$

...NORTHERN ILLINOIS...


CITY           SKY/WX    TMP DP  RH WIND       PRES   REMARKS
CHICAGO-OHARE  MOCLDY    20  14  77 W14       29.97R WCI   7
CHICAGO-MIDWAY CLOUDY    24  17  74 W12       29.98R WCI  13
MOLINE         CLEAR     11   1  64 NW18G24   30.12R WCI  -7
ROCKFORD       PTCLDY    12   5  73 NW14      30.04R WCI  -3
PEORIA         PTCLDY    16   6  65 NW9G20    30.09R WCI   4
$$

NOTE: "FAIR" INDICATES FEW OR NO CLOUDS BELOW 12,000 FEET WITH NO
SIGNIFICANT WEATHER AND/OR OBSTRUCTIONS TO VISIBILITY. WIND
SPEEDS ARE IN MILES-PER-HOUR.



USA.gov is the U.S. government's official web portal to all federal, state and local government web resources and services.